Regional Weather Roundup
Issued by NWS Cleveland, OH

Home | Current Version | Previous Version | Graphics & Text | Print | Product List | Glossary On
Versions: 1 2 3 4 5 6 7 8 9 10 11 12 13 14 15 16 17 18 19 20 21 22 23 24 25 26 27 28 29 30 31 32 33 34 35 36 37 38 39 40 41 42 43 44 45 46 47 48 49 50
000
ASUS41 KCLE 061602
RWRCLE
OHIO REGIONAL WEATHER ROUNDUP
NATIONAL WEATHER SERVICE CLEVELAND, OH
1100 AM EST FRI MAR 06 2015

NOTE: "FAIR" INDICATES FEW OR NO CLOUDS BELOW 12,000 FEET WITH NO
SIGNIFICANT WEATHER AND/OR OBSTRUCTIONS TO VISIBILITY.

OHZ001>008-015>018-024>027-034-035-043-044-061700-
   NORTHWEST OHIO

CITY           SKY/WX    TMP DP  RH WIND       PRES   REMARKS
DEFIANCE       MOSUNNY   14   2  58 SW13      30.49F WCI   0
FINDLAY        SUNNY     17   7  64 S14       30.49F WCI   3
TOLEDO EXPRESS SUNNY     16   2  54 SW12G20   30.48F WCI   3
TOLEDO EXEC    SUNNY     15   6  67 SW14      30.50F WCI   0
LIMA           SUNNY     17   6  62 SW13      30.49F WCI   4
$$

OHZ009>014-019>023-028>033-038-089-061700-
   NORTHEAST OHIO

CITY           SKY/WX    TMP DP  RH WIND       PRES   REMARKS
CLE-HOPKINS    MOSUNNY   18   5  57 SW17G23   30.53F WCI   3
CLE-LAKEFRONT  SUNNY     19   6  57 SW16      30.51F WCI   4
CUY CO. ARPT   MOSUNNY   27   9  46 W14       30.49F WCI  15
LORAIN-ELYRIA  SUNNY     16   7  67 SW13      30.50F WCI   2
ASHTABULA      SUNNY     15   2  56 SW13      30.49F WCI   1
AKRON-CANTON   SUNNY     17   4  56 SW9       30.48F WCI   6
WOOSTER        SUNNY     15   6  67 SW10      30.49F WCI   2
MANSFIELD      SUNNY     17   7  64 SW13      30.47F WCI   4
YOUNGSTOWN     MOSUNNY   15   3  59 S9        30.47F WCI   3
$$

OHZ042-051>053-060>062-070>072-077>081-061700-
  SOUTHWEST OHIO

CITY           SKY/WX    TMP DP  RH WIND       PRES   REMARKS
CINC-COVINGTON PTSUNNY   19   6  57 S9        30.54F WCI   8
CINC-LUNKEN    SUNNY     17   9  70 S9        30.59F WCI   6
HAMILTON       SUNNY     22   9  57 S9        30.56F WCI  12
DAYTON         PTSUNNY   20   7  57 SW14      30.51F WCI   7
WRIGHT-PAT AFB NOT AVBL
DAYTON GENERAL SUNNY     18   6  59 S13       30.51F WCI   5
WILMINGTON     SUNNY     17   4  56 S8        30.53F WCI   7
$$

OHZ036-037-039>041-045>050-054>059-063>069-073>076-082>088-061700-
  CENTRAL AND SOUTHEAST OHIO

CITY           SKY/WX    TMP DP  RH WIND       PRES   REMARKS
COLUMBUS       MOSUNNY   16   4  59 S10       30.55F WCI   4
OSU AIRPORT    SUNNY     18   6  59 S10       30.53F WCI   6
BOLTON FIELD   SUNNY     18   9  68 S7        30.55S WCI   8
RICKENBACK AFB NOT AVBL
NEWARK         SUNNY     16   4  59 S8        30.54F WCI   5
MARION         SUNNY     17   9  70 S12       30.51F WCI   4
LANCASTER      SUNNY     17   5  59 SW8       30.56S WCI   7
ZANESVILLE     SUNNY     15   2  56 SW6       30.55S WCI   6
NEW PHILLY     SUNNY     18   4  54 W6        30.54F WCI  10
$$


USA.gov is the U.S. government's official web portal to all federal, state and local government web resources and services.